Location: Rotheul
(50.2849°N, 11.2349°E)
Time: 05:24:44
(UTC+02:00)

ISS - Pass Details

Date: 18 May 2018
Orbit: 402 x 407 km, 51.6° (Epoch: 25 May)

Event Time Altitude Azimuth Distance (km) Brightness Sun altitude
Exits shadow 03:21:01 - 281° (W) 1,826 -0.7 -14.6°
Reaches altitude 10° 03:21:55 10° 282° (WNW) 1,458 -1.2 -14.5°
Maximum altitude 03:25:10 72° 7° (N) 428 -3.6 -14.2°
Drops below altitude 10° 03:28:26 10° 93° (E) 1,456 -0.6 -13.9°
Sets 03:30:31 0° 96° (E) 2,315 0.4 -13.8°
